Showing default

SPACEMOBILE-004, 61049

Orbit data source: Space-Track

SPACEMOBILE-004, 61049 is a payload satellite owned by AST & Science (US) in LEO that was launched on Thu, 12 Sep 2024 UTC via an FALCON 9 launch vehicle from the Air Force Eastern Test Range (AFETR). Payload-class satellites include a variety of spacecraft equipped with specific instruments for various scientific and technological missions. These include communications satellites like Starlink; space stations such as the ISS; scientific satellites like the Hubble; Earth observation satellites from companies like Planet Labs, Umbra, and HawkEye 360; GPS; miniature CubeSats for education and research; and military/defense satellites.

Loading next visibility...
Identifier
61049, 2024-163E
Orbit
LEO
Country
Flag of USUS
Related business
Manufacturer
AST & Science
Mission
Operational Commercial Communications
Bus & Motor
BW3, Unknown motor
Mass
1,500 kg wet, 1,500 kg dry
Launch date (UTC)
2024-09-12 (1 year ago)
Launch vehicle
FALCON 9
Launch site
Air Force Eastern Test Range (AFETR)
Object type
Payload
Rocket body
Debris
Shape & HBR
Box + 1 Plate, 4.5 m
Radar Cross Section
1.500 m², Large (>1 m²)

Expand to show TLE details & history
Last TLE update: 18 hours ago

TLE from 18 hours ago
0 SPACEMOBILE-004
1 61049U 24163E   25258.03580478 -.00000618  00000-0 -12980-4 0  9994
2 61049  52.9755 134.5299 0011064  40.4911 319.6904 15.20528005 55896
Epoch: 2025-09-15T00:51Z
TLE epoch observation values (Epoch: 2025-09-15T00:51:33.533Z)
Latitude
-0.00003°
Longitude
127.39392°
Altitude
499.32 km
Speed
7.619 km/s
True Right ascension
08h 58m 07s
True Declination
0° 00' 00"
Sunlit
Object was in daylight at epoch
Visualization orbit readout
Latitude
Unknown
Longitude
Unknown
Altitude
Unknown
Speed
Unknown
Apparent Right ascension
Unknown
Apparent Declination
Unknown
Sunlit
N/A
Visualization observer readout
Local Sidereal Time
11:39:46
Azimuth
Unknown
Elevation
Unknown
Doppler factor
Unknown
Orbital elements
Apogee altitude
512.147 km
Perigee altitude
496.917 km
Semi-major axis
6,882.669 km
Eccentricity
0.00111
Inclination
52.9755°
RAAN
134.5299°
Arg. of periapsis
40.4911°
True anomaly
319.60829°
Mean anomaly
319.6904°
Eccentric anomaly
319.64936°
Mean motion
3.80109 °/min
Orbital period
94.71 mins
BSTAR
-0.00001298
Loading maneuver chart data...
Computing Atmospheric mass density...
Loading historical data...
Loading historical data...
Loading historical data...
Loading historical data...
Loading historical data...
Loading historical data...
Loading historical data...

Documentation

Showing up to 5 results
|